User: anonymous   Login
Location: Cicognara
(44.9500°N, 10.4667°E)
Time: 03:26:06
(UTC+00:00)
Language:

ERS-2 - Orbit

View from above orbital plane
View from above orbital plane
View from above satellite
View from above satellite

Ground track
Ground track

The orbit data is extracted from the following two-line orbital elements,

1 23560U 95021A   21264.38485473  .00001318  00000-0  57798-4 0  9993
2 23560  98.5363 127.8151 0004437  52.2605 307.9031 15.24219721412302
Epoch (UTC): 21 September 2021 09:14:11
Eccentricity: 0.0004437
inclination: 98.5363°
perigee height: 490 km
apogee height: 496 km
right ascension of ascending node: 127.8151°
argument of perigee: 52.2605°
revolutions per day: 15.24219721
mean anomaly at epoch: 307.9031°
orbit number at epoch: 41230

The dashed part of the orbit path shows where the satellite is in the earth's shadow,  

DLR